www.pogodaiklimat.ru

Погода и климат >> Архив погоды >> Иран >> Bandar Lengeh


ПОГОДА в Bandar Lengeh

  • Прогноз погоды в Bandar Lengeh
  • Монитор погоды в Bandar Lengeh
  • Климат города

АРХИВ ПОГОДЫ в Bandar Lengeh

Время (UTC), дата Ветер
(напр.,м/с)
 
Видим.   Явления Облачность Т
(С)
Тd
(С)
f
(%)
Тe
(С)
Тes
(С)
Комфортность P
(гПа)
Po
(гПа)
Тmin
(С)
Tmax
(С)
R
(мм)
R24
(мм)
S
(см)
00 12.12 штиль 0 10 км ясно +16.6 +6.4 51 +17 +17 1014.1 1011.8
03 12.12 С 3 10 км ясно +16.4 +4.5 45 +16 +16 1014.1 1011.8 +15.2
06 12.12 С 3 12 км ясно +21.4 +5.0 34 +22 +26 комфорт 1016.4 1014.1
09 12.12 В 3 11 км ясно +23.0 +8.8 40 +24 +32 комфорт 1015.1 1012.8
12 12.12 ЮВ 3 12 км ясно +23.7 +6.4 33 +24 +25 комфорт 1014.6 1012.3
15 12.12 СВ 2 10 км ясно +19.3 +5.7 41 +20 +20 1016.1 1013.8 +23.9
18 12.12 С 3 10 км ясно +18.3 +7.4 49 +19 +19 1017.5 1015.2
21 12.12 С 3 10 км ясно +18.4 +4.9 41 +19 +19 1017.9 1015.5
00 13.12 СВ 4 10 км ясно +17.5 +5.8 46 +17 +17 1018.0 1015.7
03 13.12 В 5 10 км ясно +19.0 +3.4 35 +19 +19 1018.6 1016.3 +14.5
06 13.12 В 7 8000 м пыльный позёмок ясно +20.9 +5.0 35 +21 +23 комфорт 1020.3 1018.0
09 13.12 В 6 8000 м мгла ясно +22.2 +5.1 33 +23 +26 комфорт 1018.5 1016.2
12 13.12 В 4 8000 м мгла ясно +22.5 +5.9 34 +23 +24 комфорт 1017.0 1014.7
15 13.12 В 2 7000 м мгла ясно +18.3 +6.7 47 +19 +19 1017.6 1015.3 +23.2
18 13.12 СВ 3 7000 м мгла ясно +16.5 +7.5 55 +16 +16 1018.2 1015.9
21 13.12 С 3 7000 м мгла ясно +16.6 +5.2 47 +16 +16 1017.7 1015.4
00 14.12 СВ 3 7000 м мгла ясно +15.4 +1.7 39 +15 +15 1017.2 1014.9
03 14.12 СВ 4 7000 м мгла ясно +15.8 -1.1 31 +15 +15 1018.2 1015.9 +14.8
06 14.12 В 6 7000 м мгла 9/0
[Ac trans Cs]
+21.2 -3.2 19 +20 +22 1019.6 1017.3
09 14.12 В 6 6000 м мгла 8/4 900 м
[Sc Ac trans Cs]
+21.4 +2.7 29 +21 +23 комфорт 1019.4 1017.1
12 14.12 В 4 7000 м мгла 6/3 900 м
[Sc Ac trans Cs]
+22.6 +7.2 37 +23 +24 комфорт 1016.9 1014.6
15 14.12 СВ 3 7000 м мгла 6/0
[Ac trans Cs]
+19.2 +10.7 58 +20 +20 1016.9 1014.6 +23.2
18 14.12 В 4 7000 м мгла 6/0
[Ac trans Cs]
+20.0 +10.0 53 +21 +21 комфорт 1017.6 1015.3
21 14.12 В 3 10 км 5/0
[Ac trans Cs]
+19.4 +12.2 63 +21 +21 комфорт 1017.6 1015.3
00 15.12 СВ 3 10 км 5/0
[Ac trans]
+17.4 +8.9 57 +17 +17 1016.3 1014.0
03 15.12 В 4 7000 м мгла 6/0
[Ac trans Cs]
+19.6 +12.9 65 +21 +21 комфорт 1016.3 1014.0 +15.8
06 15.12 В 8 6000 м пыльный позёмок 6/0
[Ac trans Cs]
+21.6 +11.6 53 +24 +24 комфорт 1019.7 1017.4
09 15.12 В 6 8000 м мгла 6/3 900 м
[Cu med, cong Ac trans Cs]
+23.4 +11.3 47 +26 +28 жарко 1018.7 1016.4
12 15.12 В 6 8000 м мгла 8/3 900 м
[Sc Ac trans Cs]
+22.8 +11.8 50 +25 +26 комфорт 1017.5 1015.2
15 15.12 В 4 7000 м мгла 6/0
[Ac trans Cs]
+21.0 +13.4 62 +24 +24 комфорт 1017.5 1015.2 +23.8
18 15.12 В 4 7000 м 8/5 600 м
[Cb cap Ac und Cs]
+20.6 +14.4 68 +23 +23 комфорт 1019.3 1017.0
21 15.12 В 3 7000 м гроза без осадков 6/3 750 м
[Cb cap Ac und]
+20.2 +17.3 83 +24 +24 комфорт 1018.8 1016.5
00 16.12 В 5 7000 м 6/4 600 м
[Cb cap Ac und]
+19.6 +15.6 78 +21 +21 комфорт 1018.3 1016.0
03 16.12 В 3 7000 м мгла {гроза} 5/0
[Ac trans]
+19.6 +13.7 69 +22 +22 комфорт 1018.3 1016.0 +18.6
06 16.12 В 4 10 км слабый дождь {гроза} 10/6 750 м
[Cb cap As op]
+20.6 +15.6 73 +24 +24 комфорт 1020.8 1018.6 0.0
09 16.12 С 10 3000 м слабый град {гроза} 10/6 750 м
[Cb cap As op]
+14.8 +13.7 93 +12 +12 1020.4 1018.1
12 16.12 С 4 10 км гроза без осадков 9/5 450 м
[Cb cap As op]
+17.6 +12.2 71 +17 +18 1019.9 1017.6 17
15 16.12 СЗ 7 10 км 9/3 900 м
[Cb calv As op]
+15.7 +10.6 72 +14 +14 1022.0 1019.7 +21.0
18 16.12 С 4 8000 м мгла {гроза, дождь} 6/3 900 м
[Sc Ac As]
+16.0 +10.1 68 +15 +15 1020.8 1018.5 2
21 16.12 С 3 8000 м мгла 5/0
[Ac trans]
+16.7 +9.2 61 +17 +17 1019.7 1017.4
00 17.12 СВ 3 8000 м мгла 4/0
[Ac trans]
+15.3 +9.7 69 +15 +15 1019.3 1017.0
03 17.12 В 5 8000 м мгла 5/3 900 м
[Sc Ac trans]
+18.4 +11.5 64 +18 +18 1019.4 1017.1 +14.7
06 17.12 В 6 10 км 10/3 900 м
[Cb calv As op]
+19.3 +13.3 68 +20 +21 1021.3 1019.0
09 17.12 С 3 6000 м дождь {гроза} 10/3 900 м
[Cb calv As op]
+16.8 +16.5 98 +17 +18 1019.9 1017.6
12 17.12 В 2 2000 м сильная гроза, ливневой дождь 10/8 750 м
[Cb cap As op]
+14.1 +14.1 100 +13 +14 1019.6 1017.3 23
15 17.12 С 3 10 км 8/3 900 м
[Sc diur, vesp Ac As]
+15.5 +13.9 90 +15 +15 1019.3 1017.0 +19.5
18 17.12 СВ 4 8000 м мгла {гроза} 8/3 900 м
[Sc diur, vesp Ac As]
+17.6 +12.2 71 +17 +17 1019.8 1017.5 2
21 17.12 С 2 8000 м мгла 8/0
[Ac As]
+17.2 +11.3 68 +18 +18 1019.8 1017.5
00 18.12 СЗ 2 8000 м гроза без осадков 9/3 750 м
[Cb cap As op]
+16.6 +12.0 74 +17 +17 1020.1 1017.8
03 18.12 СЗ 3 8000 м гроза без осадков {дождь} 10/6 750 м
[Cb cap As op]
+15.3 +13.9 91 +15 +15 1022.2 1019.9 +13.7
06 18.12 СВ 5 10 км {гроза, морось} 8/4 750 м
[St Ac und Cs]
+17.2 +13.7 80 +17 +18 1023.0 1020.7 0.4
09 18.12 СВ 4 15 км 4/1 900 м
[Cu med, cong Ac trans]
+21.6 +12.4 56 +24 +28 комфорт 1021.8 1019.5
12 18.12 В 3 15 км 4/1 900 м
[Cu med, cong Ac trans]
+21.2 +14.8 67 +24 +25 комфорт 1020.2 1017.9
15 18.12 штиль 0 10 км 3/1 900 м
[Sc Ac trans]
+18.6 +16.3 86 +19 +19 1019.5 1017.2 +21.8
18 18.12 штиль 0 10 км ясно +17.2 +12.9 76 +17 +17 1021.0 1018.7
21 18.12 штиль 0 10 км ясно +16.2 +12.2 77 +16 +16 1019.4

 

Местоположение метеостанции Bandar Lengeh (Иран): широта 26.58 долгота 54.83 высота над уровнем моря 14 м.

В архиве по умолчанию представлена погода в Bandar Lengeh за последнюю неделю. Архивные данные за месяц целиком и за предыдущие месяцы, начиная с января 2011 года, Вы можете получить, выбрав интересующий диапазон дат из раскрывающегося списка и нажав кнопку "Ввод!".

Внимание! Время в таблицах - всемирное. Для получения местного времени необходимо прибавить поправку, которая в Bandar Lengeh равна 3.5 ч.

Смотрите также архив погоды в соседних городах и на ближайших метеорологических станциях:

Погода в Sirri Island (Иран) (80 км)
Погода в Abu Musa Island (Иран) (83 км)
Погода в Kish Island (Иран) (85 км)
Погода в Khasab (Оман) (146 км)
Погода в Khasab Airport (Оман) (147 км)
Погода в Ras Al Khaimah Int Airport (ОАЭ) (153 км)
Погода в Sharjah (ОАЭ) (155 км)
Погода в Dubai (ОАЭ) (156 км)
Погода в Bandarabbass (Иран) (169 км)
Погода в Diba (Оман) (178 км)

Пояснения к столбцам:

Ветер - указаны скорость ветра в м/с - средняя за 10 мин, порывы в срок и между сроками (в фигурных скобках) и направление, откуда дует ветер: С - северный, СВ - северо-восточный, В - восточный, ЮВ - юго-восточный, Ю - южный, ЮЗ - юго-западный, З - западный, СЗ - северо-западный.
Видимость - горизонтальная дальность видимости в метрах или километрах. При видимости от 1 до 10 км при отсутствии осадков обычно наблюдается дымка, при ухудшении видимости до 1 км и менее - туман. В сухую погоду видимость может ухудшаться дымом, пылью или мглою.
Явления - указаны атмосферные явления, наблюдавшиеся в срок или в последний час перед сроком; фигурными скобками обозначены явления, наблюдавшиеся между сроками (за 1-3 часа до срока); квадратными скобками обозначены град или гололедные отложения с указанием их диаметра в мм.
Облачность - указаны через наклонную черту общая и нижняя облачность в баллах и высота нижней границы облаков в метрах; квадратными скобками обозначены формы облаков: Ci - перистые, Cs - перисто-слоистые, Cc - перисто-кучевые, Ac - высококучевые, As - высокослоистые, Sc - слоисто-кучевые, Ns - слоисто-дождевые, Cu - кучевые, Cb - кучево-дождевые. Подробнее классификацию облаков см. в Атласе облаков (PDF).
T - Температура воздуха - температура, измеренная на высоте 2 м над землей.
Td - Температура точки росы - температура, при понижении до которой содержащийся в воздухе водяной пар достигнет насыщения.
f - Относительная влажность воздуха - влажноcть воздуха, измеренная на высоте 2 м над землей.
Te - Эффективная температура - температура, которую ощущает одетый по сезону человек в тени. Характеристика душности погоды. При расчете учитывается влияние влажности воздуха и скорости ветра на теплоощущения человека.
Tes - Эффективная температура на солнце - температура, которую ощущает человек, с поправкой на солнечный нагрев. Характеристика знойности погоды. Зависит от высоты солнца над горизонтом, облачности и скорости ветра. Ночью, в пасмурную погоду, а также при ветре 12 м/с и более поправка равна нулю.
P - Атмосферное давление - приведенное к уровню моря атмосферное давление.
Po - Атмосферное давление - измеренное на уровне метеостанции атмосферное давление.
Tmin - Минимальная температура - минимум температуры воздуха на высоте 2 м над землей.
Tmax - Максимальная температура - максимум температуры воздуха на высоте 2 м над землей.
R - Количество осадков - Количество выпавших осадков за период времени, мм. При наведении курсора мыши на число - период времени, за который выпало указанное количество осадков.
R24 - Количество осадков - Количество выпавших осадков за 24 часа, мм.
S - Снежный покров - Высота снежного покрова, см. При наведении курсора мыши на число - состояние снежного покрова и степень покрытия местности в баллах.